CPA613 VHHH-VHHH

Flight info

Callsign CPA613
Flight time 1h 27m
Altitude 5000
Route RAMEN2A/07R RAMEN DCT LIMES VHHH
Aircraft B77W/H-SDE1E2E3FGHIJ2J3J4J5M1RWXY/LB1D1

Departure

Time 2026-05-07 08:46
Airport Hong Kong International Airport (VHHH)

Arrival

Time 2026-05-07 10:13
Airport Hong Kong International Airport (VHHH)
Time Latitude Longitude Altitude Speed Heading
2026-05-07 08:46 22.30484 113.83019 1005 ft 159 kts 75°
2026-05-07 08:46 22.30827 113.84088 819 ft 149 kts 75°
2026-05-07 08:46 22.31171 113.85164 647 ft 154 kts 71°
2026-05-07 08:47 22.31527 113.86268 624 ft 156 kts 70°
2026-05-07 08:47 22.31885 113.87369 1025 ft 152 kts 75°
2026-05-07 08:47 22.32246 113.88491 1537 ft 168 kts 74°
2026-05-07 08:47 22.32656 113.89776 2080 ft 202 kts 74°
2026-05-07 08:48 22.33160 113.91358 2614 ft 239 kts 72°
2026-05-07 08:48 22.33718 113.93091 3660 ft 247 kts 71°
2026-05-07 08:48 22.34384 113.94800 4458 ft 250 kts 55°
2026-05-07 08:48 22.35617 113.96127 4954 ft 255 kts 35°
2026-05-07 08:49 22.37095 113.97286 5000 ft 272 kts 35°
2026-05-07 08:49 22.38638 113.98520 5009 ft 274 kts 36°
2026-05-07 08:49 22.40154 113.99747 5007 ft 271 kts 36°
2026-05-07 08:49 22.41651 114.00966 5012 ft 275 kts 36°
2026-05-07 08:50 22.43124 114.02274 4994 ft 274 kts 45°
2026-05-07 08:50 22.44270 114.03925 5005 ft 276 kts 59°
2026-05-07 08:50 22.45097 114.05789 5001 ft 274 kts 67°
2026-05-07 08:50 22.45796 114.07680 5009 ft 268 kts 68°
2026-05-07 08:51 22.46478 114.09541 4998 ft 264 kts 68°
2026-05-07 08:51 22.47164 114.11378 5004 ft 263 kts 67°
2026-05-07 08:51 22.47859 114.13215 5010 ft 264 kts 67°
2026-05-07 08:51 22.48555 114.15047 5019 ft 263 kts 67°
2026-05-07 08:52 22.49194 114.16888 5001 ft 259 kts 78°
2026-05-07 08:52 22.49121 114.18771 5026 ft 256 kts 110°
2026-05-07 08:52 22.48236 114.20408 5025 ft 252 kts 134°
2026-05-07 08:52 22.46942 114.21691 5048 ft 256 kts 140°
2026-05-07 08:53 22.45580 114.22975 5031 ft 262 kts 140°
2026-05-07 08:53 22.44202 114.24272 5024 ft 261 kts 140°
2026-05-07 08:53 22.42839 114.25559 5024 ft 258 kts 140°
2026-05-07 08:53 22.41496 114.26830 5018 ft 256 kts 140°
2026-05-07 08:54 22.40157 114.28099 5018 ft 255 kts 140°
2026-05-07 08:54 22.38825 114.29361 5027 ft 256 kts 140°
2026-05-07 08:54 22.37508 114.30616 5029 ft 254 kts 140°
2026-05-07 08:54 22.36177 114.31884 5032 ft 255 kts 140°
2026-05-07 08:55 22.34833 114.33164 5023 ft 258 kts 140°
2026-05-07 08:55 22.33478 114.34436 5021 ft 256 kts 144°
2026-05-07 08:55 22.31888 114.35202 5032 ft 252 kts 174°
2026-05-07 08:55 22.30166 114.34982 5027 ft 251 kts 204°
2026-05-07 08:56 22.28704 114.33983 5033 ft 250 kts 223°
2026-05-07 08:56 22.27422 114.32706 5026 ft 252 kts 224°
2026-05-07 08:56 22.26138 114.31402 5045 ft 254 kts 225°
2026-05-07 08:56 22.24876 114.30121 5019 ft 251 kts 225°
2026-05-07 08:57 22.23601 114.28828 5017 ft 250 kts 224°
2026-05-07 08:57 22.22341 114.27558 5007 ft 246 kts 224°
2026-05-07 08:57 22.21096 114.26307 5007 ft 243 kts 224°
2026-05-07 08:57 22.19864 114.25074 5008 ft 241 kts 224°
2026-05-07 08:58 22.18625 114.23833 5012 ft 244 kts 224°
2026-05-07 08:58 22.17379 114.22586 5015 ft 245 kts 224°
2026-05-07 08:58 22.16238 114.21244 5004 ft 243 kts 237°
2026-05-07 08:58 22.15374 114.19663 5018 ft 245 kts 242°
2026-05-07 08:59 22.14587 114.18062 5019 ft 246 kts 243°
2026-05-07 08:59 22.13783 114.16419 5008 ft 246 kts 242°
2026-05-07 08:59 22.12980 114.14795 5009 ft 245 kts 242°
2026-05-07 08:59 22.12177 114.13187 5008 ft 243 kts 242°
2026-05-07 09:00 22.11372 114.11587 5005 ft 242 kts 242°
2026-05-07 09:00 22.10567 114.09995 5001 ft 241 kts 242°
2026-05-07 09:00 22.09760 114.08406 5007 ft 241 kts 242°
2026-05-07 09:00 22.08949 114.06816 5000 ft 241 kts 242°
2026-05-07 09:01 22.08143 114.05235 5002 ft 241 kts 242°
2026-05-07 09:01 22.07333 114.03649 5009 ft 241 kts 242°
2026-05-07 09:01 22.06522 114.02063 5012 ft 242 kts 242°
2026-05-07 09:01 22.05712 114.00480 5007 ft 241 kts 242°
2026-05-07 09:02 22.04901 113.98898 4996 ft 242 kts 241°
2026-05-07 09:02 22.04075 113.97287 4789 ft 250 kts 241°
2026-05-07 09:02 22.03232 113.95629 4479 ft 252 kts 244°
2026-05-07 09:02 22.02837 113.93822 4171 ft 250 kts 272°
2026-05-07 09:03 22.03248 113.92022 3879 ft 250 kts 294°
2026-05-07 09:03 22.04075 113.90377 3616 ft 249 kts 298°
2026-05-07 09:03 22.04929 113.88750 3324 ft 249 kts 298°
2026-05-07 09:03 22.05780 113.87126 3096 ft 246 kts 298°
2026-05-07 09:04 22.06595 113.85563 3035 ft 238 kts 298°
2026-05-07 09:04 22.07407 113.83994 3035 ft 243 kts 298°
2026-05-07 09:04 22.08235 113.82388 3032 ft 248 kts 297°
2026-05-07 09:04 22.09080 113.80748 3023 ft 251 kts 297°
2026-05-07 09:05 22.09925 113.79105 3024 ft 250 kts 297°
2026-05-07 09:05 22.10914 113.77591 2996 ft 248 kts 318°
2026-05-07 09:05 22.12408 113.76680 2845 ft 247 kts 335°
2026-05-07 09:05 22.13967 113.75929 2537 ft 241 kts 335°
2026-05-07 09:06 22.15460 113.75196 2231 ft 230 kts 335°
2026-05-07 09:06 22.16861 113.74502 2067 ft 212 kts 335°
2026-05-07 09:06 22.18167 113.73849 2043 ft 201 kts 335°
2026-05-07 09:06 22.19453 113.73211 2052 ft 203 kts 334°
2026-05-07 09:07 22.20719 113.72576 2012 ft 197 kts 334°
2026-05-07 09:07 22.21932 113.71975 2026 ft 194 kts 334°
2026-05-07 09:07 22.23230 113.71570 1997 ft 197 kts
2026-05-07 09:07 22.24474 113.72156 1869 ft 198 kts 43°
2026-05-07 09:08 22.25487 113.73141 1772 ft 196 kts 44°
2026-05-07 09:08 22.26519 113.74111 1591 ft 194 kts 44°
2026-05-07 09:08 22.27518 113.75045 1532 ft 186 kts 44°
2026-05-07 09:08 22.28277 113.76145 1501 ft 183 kts 72°
2026-05-07 09:09 22.28672 113.77427 1541 ft 175 kts 72°
2026-05-07 09:09 22.29076 113.78648 1495 ft 169 kts 74°
2026-05-07 09:09 22.29454 113.79813 1488 ft 163 kts 74°
2026-05-07 09:09 22.29832 113.80994 1398 ft 171 kts 73°
2026-05-07 09:10 22.30214 113.82181 1195 ft 163 kts 74°
2026-05-07 09:10 22.30585 113.83336 976 ft 163 kts 75°
2026-05-07 09:10 22.30957 113.84501 764 ft 167 kts 72°
2026-05-07 09:10 22.31332 113.85665 544 ft 158 kts 71°
2026-05-07 09:11 22.31682 113.86752 348 ft 153 kts 70°
2026-05-07 09:11 22.32050 113.87893 1060 ft 161 kts 73°
2026-05-07 09:11 22.32436 113.89080 2947 ft 176 kts 73°
2026-05-07 09:11 22.32884 113.90478 4327 ft 232 kts 71°
2026-05-07 09:12 22.33433 113.92183 4835 ft 243 kts 70°
2026-05-07 09:12 22.33991 113.93899 4984 ft 239 kts 68°
2026-05-07 09:12 22.34875 113.95413 4999 ft 241 kts 46°
2026-05-07 09:12 22.36145 113.96597 5007 ft 240 kts 35°
2026-05-07 09:13 22.37492 113.97651 5004 ft 236 kts 34°
2026-05-07 09:13 22.38806 113.98683 5010 ft 231 kts 35°
2026-05-07 09:13 22.40096 113.99715 5013 ft 232 kts 35°
2026-05-07 09:13 22.41396 114.00764 5011 ft 232 kts 36°
2026-05-07 09:14 22.42687 114.01816 5004 ft 233 kts 35°
2026-05-07 09:14 22.43887 114.02950 4991 ft 228 kts 56°
2026-05-07 09:14 22.44581 114.04561 5057 ft 253 kts 68°
2026-05-07 09:14 22.45241 114.06333 5010 ft 256 kts 68°
2026-05-07 09:15 22.45916 114.08120 5012 ft 251 kts 68°
2026-05-07 09:15 22.46573 114.09851 5010 ft 255 kts 67°
2026-05-07 09:15 22.47251 114.11632 5021 ft 256 kts 67°
2026-05-07 09:15 22.47925 114.13401 5011 ft 253 kts 67°
2026-05-07 09:16 22.48599 114.15167 5038 ft 257 kts 67°
2026-05-07 09:16 22.49224 114.16977 5005 ft 255 kts 78°
2026-05-07 09:16 22.49133 114.18862 5022 ft 255 kts 111°
2026-05-07 09:16 22.48193 114.20471 5014 ft 254 kts 136°
2026-05-07 09:17 22.46884 114.21749 5025 ft 255 kts 140°
2026-05-07 09:17 22.45540 114.23015 5024 ft 258 kts 140°
2026-05-07 09:17 22.44179 114.24295 5029 ft 260 kts 140°
2026-05-07 09:17 22.42816 114.25581 5048 ft 259 kts 140°
2026-05-07 09:18 22.41459 114.26865 5018 ft 259 kts 140°
2026-05-07 09:18 22.40110 114.28143 5016 ft 257 kts 140°
2026-05-07 09:18 22.38761 114.29423 5017 ft 257 kts 140°
2026-05-07 09:18 22.37427 114.30693 5021 ft 256 kts 140°
2026-05-07 09:19 22.36093 114.31964 5021 ft 255 kts 140°
2026-05-07 09:19 22.34756 114.33237 5015 ft 255 kts 140°
2026-05-07 09:19 22.33421 114.34492 5011 ft 252 kts 144°
2026-05-07 09:19 22.31863 114.35252 5018 ft 252 kts 174°
2026-05-07 09:20 22.30143 114.35018 5046 ft 252 kts 205°
2026-05-07 09:20 22.28700 114.33979 5029 ft 249 kts 224°
2026-05-07 09:20 22.27420 114.32694 5024 ft 253 kts 224°
2026-05-07 09:20 22.26136 114.31394 5028 ft 253 kts 224°
2026-05-07 09:21 22.24852 114.30092 5027 ft 252 kts 224°
2026-05-07 09:21 22.23571 114.28796 5023 ft 252 kts 224°
2026-05-07 09:21 22.22287 114.27502 5018 ft 253 kts 224°
2026-05-07 09:21 22.20997 114.26207 5017 ft 253 kts 224°
2026-05-07 09:22 22.19710 114.24919 5011 ft 251 kts 224°
2026-05-07 09:22 22.18448 114.23657 5009 ft 250 kts 224°
2026-05-07 09:22 22.17179 114.22388 5004 ft 247 kts 224°
2026-05-07 09:22 22.16092 114.20998 5005 ft 241 kts 239°
2026-05-07 09:23 22.15264 114.19430 5010 ft 241 kts 243°
2026-05-07 09:23 22.14479 114.17830 5011 ft 241 kts 243°
2026-05-07 09:23 22.13696 114.16234 5013 ft 241 kts 242°
2026-05-07 09:23 22.12908 114.14645 5009 ft 240 kts 242°
2026-05-07 09:24 22.12105 114.13040 5014 ft 243 kts 242°
2026-05-07 09:24 22.11292 114.11425 5038 ft 247 kts 242°
2026-05-07 09:24 22.10476 114.09815 5006 ft 248 kts 242°
2026-05-07 09:24 22.09651 114.08191 5010 ft 247 kts 242°
2026-05-07 09:25 22.08826 114.06572 4995 ft 246 kts 242°
2026-05-07 09:25 22.08271 114.05484 5003 ft 245 kts 242°
2026-05-07 09:25 22.07449 114.03877 5005 ft 244 kts 242°
2026-05-07 09:25 22.06631 114.02276 5010 ft 244 kts 242°
2026-05-07 09:26 22.05811 114.00674 5012 ft 244 kts 241°
2026-05-07 09:26 22.04989 113.99069 5013 ft 245 kts 241°
2026-05-07 09:26 22.04174 113.97479 5013 ft 246 kts 241°
2026-05-07 09:26 22.03345 113.95864 5015 ft 246 kts 242°
2026-05-07 09:27 22.02808 113.94154 5009 ft 242 kts 268°
2026-05-07 09:27 22.03097 113.92371 5016 ft 243 kts 292°
2026-05-07 09:27 22.04720 113.89143 5015 ft 248 kts 298°
2026-05-07 09:28 22.05575 113.87514 5014 ft 249 kts 298°
2026-05-07 09:28 22.06425 113.85887 5008 ft 249 kts 298°
2026-05-07 09:28 22.07260 113.84278 5013 ft 249 kts 298°
2026-05-07 09:28 22.08102 113.82648 5010 ft 249 kts 297°
2026-05-07 09:29 22.08943 113.81015 5007 ft 249 kts 298°
2026-05-07 09:29 22.09784 113.79382 5009 ft 249 kts 297°
2026-05-07 09:29 22.10704 113.77809 4754 ft 248 kts 313°
2026-05-07 09:29 22.12145 113.76822 4373 ft 241 kts 334°
2026-05-07 09:30 22.13649 113.76095 3877 ft 233 kts 333°
2026-05-07 09:30 22.15105 113.75375 3401 ft 228 kts 334°
2026-05-07 09:30 22.16529 113.74667 2906 ft 223 kts 334°
2026-05-07 09:30 22.17922 113.73974 2456 ft 217 kts 334°
2026-05-07 09:31 22.19272 113.73298 2100 ft 207 kts 335°
2026-05-07 09:31 22.20537 113.72671 2087 ft 208 kts 334°
2026-05-07 09:31 22.21855 113.72012 2044 ft 208 kts 334°
2026-05-07 09:31 22.23210 113.71693 1989 ft 194 kts
2026-05-07 09:32 22.24448 113.72236 2019 ft 195 kts 37°
2026-05-07 09:32 22.25523 113.73166 1881 ft 201 kts 43°
2026-05-07 09:32 22.26582 113.74155 1645 ft 202 kts 44°
2026-05-07 09:32 22.27613 113.75125 1555 ft 190 kts 46°
2026-05-07 09:33 22.28277 113.76245 1518 ft 175 kts 75°
2026-05-07 09:33 22.28679 113.77481 1491 ft 172 kts 72°
2026-05-07 09:33 22.29085 113.78677 1525 ft 166 kts 73°
2026-05-07 09:33 22.29464 113.79845 1515 ft 164 kts 74°
2026-05-07 09:34 22.29844 113.81029 1372 ft 169 kts 75°
2026-05-07 09:34 22.30217 113.82189 1170 ft 165 kts 75°
2026-05-07 09:34 22.30588 113.83347 970 ft 159 kts 75°
2026-05-07 09:34 22.30943 113.84434 744 ft 154 kts 72°
2026-05-07 09:35 22.31296 113.85532 593 ft 155 kts 71°
2026-05-07 09:35 22.31639 113.86621 391 ft 151 kts 70°
2026-05-07 09:35 22.31985 113.87688 237 ft 151 kts 70°
2026-05-07 09:35 22.32333 113.88759 51 ft 151 kts 69°
2026-05-07 09:36 22.32677 113.89809 45 ft 169 kts 70°
2026-05-07 09:36 22.33054 113.90992 326 ft 159 kts 71°
2026-05-07 09:36 22.33385 113.92093 568 ft 156 kts 71°
2026-05-07 09:36 22.33730 113.93182 790 ft 152 kts 72°
2026-05-07 09:37 22.34098 113.94249 1143 ft 154 kts 67°
2026-05-07 09:37 22.34748 113.95227 1456 ft 167 kts 51°
2026-05-07 09:37 22.35666 113.96100 1735 ft 187 kts 40°
2026-05-07 09:37 22.36744 113.96983 2233 ft 205 kts 38°
2026-05-07 09:38 22.37892 113.97911 2818 ft 210 kts 38°
2026-05-07 09:38 22.39050 113.98848 3601 ft 210 kts 37°
2026-05-07 09:38 22.40219 113.99799 4307 ft 212 kts 36°
2026-05-07 09:38 22.41425 114.00782 4893 ft 222 kts 36°
2026-05-07 09:39 22.42672 114.01794 4983 ft 226 kts 36°
2026-05-07 09:39 22.43775 114.02971 4998 ft 225 kts 55°
2026-05-07 09:39 22.44504 114.04471 5011 ft 228 kts 65°
2026-05-07 09:39 22.45148 114.06103 5032 ft 249 kts 67°
2026-05-07 09:40 22.45824 114.07876 4997 ft 252 kts 67°
2026-05-07 09:40 22.46484 114.09614 4993 ft 248 kts 67°
2026-05-07 09:40 22.47131 114.11317 5002 ft 250 kts 67°
2026-05-07 09:40 22.47799 114.13068 5007 ft 252 kts 67°
2026-05-07 09:41 22.48464 114.14810 5016 ft 251 kts 67°
2026-05-07 09:41 22.49124 114.16567 5009 ft 249 kts 71°
2026-05-07 09:41 22.49277 114.18409 5017 ft 252 kts 103°
2026-05-07 09:41 22.48513 114.20110 5006 ft 252 kts 133°
2026-05-07 09:42 22.47258 114.21384 5021 ft 249 kts 140°
2026-05-07 09:42 22.45948 114.22622 5019 ft 254 kts 140°
2026-05-07 09:42 22.44625 114.23870 5016 ft 250 kts 140°
2026-05-07 09:42 22.43312 114.25109 5022 ft 252 kts 140°
2026-05-07 09:43 22.41998 114.26352 5014 ft 250 kts 140°
2026-05-07 09:43 22.40685 114.27596 5018 ft 252 kts 140°
2026-05-07 09:43 22.39365 114.28850 5021 ft 253 kts 140°
2026-05-07 09:43 22.38055 114.30095 5004 ft 248 kts 140°
2026-05-07 09:44 22.36759 114.31331 5020 ft 251 kts 140°
2026-05-07 09:44 22.35447 114.32580 5009 ft 250 kts 140°
2026-05-07 09:44 22.34137 114.33824 5038 ft 252 kts 140°
2026-05-07 09:44 22.32754 114.34963 5011 ft 250 kts 156°
2026-05-07 09:45 22.31064 114.35288 5027 ft 249 kts 188°
2026-05-07 09:45 22.29462 114.34647 4963 ft 246 kts 216°
2026-05-07 09:45 22.28158 114.33444 4788 ft 248 kts 224°
2026-05-07 09:45 22.26910 114.32176 4634 ft 248 kts 224°
2026-05-07 09:46 22.25664 114.30905 4562 ft 245 kts 224°
2026-05-07 09:46 22.24433 114.29645 4525 ft 242 kts 224°
2026-05-07 09:46 22.23214 114.28394 4501 ft 242 kts 224°
2026-05-07 09:46 22.21989 114.27135 4523 ft 242 kts 224°
2026-05-07 09:47 22.20773 114.25881 4502 ft 243 kts 225°
2026-05-07 09:47 22.19552 114.24623 4521 ft 242 kts 225°
2026-05-07 09:47 22.18330 114.23362 4519 ft 243 kts 224°
2026-05-07 09:47 22.17140 114.22073 4505 ft 241 kts 228°
2026-05-07 09:48 22.16144 114.20625 4521 ft 242 kts 239°
2026-05-07 09:48 22.15292 114.19060 4515 ft 241 kts 241°
2026-05-07 09:48 22.14480 114.17515 4498 ft 240 kts 241°
2026-05-07 09:48 22.13659 114.15943 4516 ft 240 kts 241°
2026-05-07 09:49 22.12841 114.14375 4499 ft 240 kts 241°
2026-05-07 09:49 22.12026 114.12808 4518 ft 239 kts 241°
2026-05-07 09:49 22.11380 114.11160 4529 ft 241 kts 253°
2026-05-07 09:49 22.11036 114.09373 4500 ft 246 kts 271°
2026-05-07 09:50 22.11247 114.07537 4514 ft 249 kts 280°
2026-05-07 09:50 22.11720 114.05740 4498 ft 249 kts 288°
2026-05-07 09:50 22.12370 114.04049 4486 ft 239 kts 298°
2026-05-07 09:50 22.13330 114.02634 4495 ft 228 kts 309°
2026-05-07 09:51 22.14345 114.01414 4484 ft 212 kts 317°
2026-05-07 09:51 22.15606 114.00757 4478 ft 200 kts 355°
2026-05-07 09:51 22.17015 114.00977 4529 ft 210 kts 16°
2026-05-07 09:51 22.18385 114.01504 4491 ft 206 kts 19°
2026-05-07 09:52 22.19691 114.02055 4469 ft 199 kts 20°
2026-05-07 09:52 22.20981 114.02609 4474 ft 199 kts 24°
2026-05-07 09:52 22.22181 114.03397 4375 ft 206 kts 36°
2026-05-07 09:52 22.23309 114.04403 4117 ft 212 kts 39°
2026-05-07 09:53 22.24411 114.05422 3857 ft 212 kts 41°
2026-05-07 09:53 22.25511 114.06472 3584 ft 206 kts 41°
2026-05-07 09:53 22.26560 114.07476 3278 ft 198 kts 42°
2026-05-07 09:53 22.27560 114.08451 2976 ft 189 kts 43°
2026-05-07 09:54 22.28493 114.09367 2772 ft 175 kts 44°
2026-05-07 09:54 22.29372 114.10261 2531 ft 170 kts 46°
2026-05-07 09:54 22.30166 114.11155 2264 ft 161 kts 50°
2026-05-07 09:54 22.30900 114.12047 1948 ft 157 kts 52°
2026-05-07 09:55 22.31622 114.12915 1595 ft 152 kts 50°
2026-05-07 09:55 22.32319 114.13729 1318 ft 142 kts 53°
2026-05-07 09:55 22.32876 114.14623 1134 ft 148 kts 68°
2026-05-07 09:55 22.33147 114.15688 1009 ft 151 kts 82°
2026-05-07 09:56 22.33229 114.16811 795 ft 149 kts 90°
2026-05-07 09:56 22.33204 114.17938 515 ft 150 kts 93°
2026-05-07 09:56 22.32810 114.18934 209 ft 147 kts 133°
2026-05-07 09:56 22.32116 114.19715 43 ft 140 kts 134°
2026-05-07 09:57 22.31478 114.20432 38 ft 127 kts 134°
2026-05-07 09:57 22.30782 114.21209 149 ft 149 kts 134°
2026-05-07 09:57 22.30085 114.21995 345 ft 143 kts 133°
2026-05-07 09:57 22.29423 114.22758 805 ft 135 kts 134°
2026-05-07 09:58 22.28801 114.23474 1299 ft 130 kts 133°
2026-05-07 09:58 22.28164 114.24224 1605 ft 143 kts 133°
2026-05-07 09:58 22.27403 114.24949 2173 ft 145 kts 158°
2026-05-07 09:58 22.26389 114.24844 2924 ft 155 kts 205°
2026-05-07 09:59 22.25259 114.24373 3535 ft 193 kts 197°
2026-05-07 09:59 22.23841 114.23929 4030 ft 234 kts 196°
2026-05-07 09:59 22.22223 114.23452 4740 ft 245 kts 197°
2026-05-07 09:59 22.20560 114.22970 5044 ft 248 kts 197°
2026-05-07 10:00 22.18869 114.22483 5029 ft 252 kts 197°
2026-05-07 10:00 22.17222 114.21898 5006 ft 246 kts 212°
2026-05-07 10:00 22.16005 114.20641 5031 ft 245 kts 238°
2026-05-07 10:00 22.15161 114.19044 5043 ft 248 kts 242°
2026-05-07 10:01 22.14328 114.17400 5029 ft 249 kts 242°
2026-05-07 10:01 22.13498 114.15758 5014 ft 248 kts 242°
2026-05-07 10:01 22.12677 114.14135 5013 ft 245 kts 242°
2026-05-07 10:01 22.11862 114.12527 5007 ft 243 kts 242°
2026-05-07 10:02 22.11052 114.10933 5009 ft 242 kts 242°
2026-05-07 10:02 22.10253 114.09365 5013 ft 241 kts 242°
2026-05-07 10:02 22.09433 114.07756 5027 ft 242 kts 242°
2026-05-07 10:02 22.08633 114.06191 5006 ft 242 kts 242°
2026-05-07 10:03 22.07820 114.04601 5031 ft 243 kts 241°
2026-05-07 10:03 22.06996 114.02990 5034 ft 243 kts 242°
2026-05-07 10:03 22.06185 114.01404 5031 ft 246 kts 241°
2026-05-07 10:03 22.05352 113.99778 5031 ft 248 kts 241°
2026-05-07 10:04 22.04517 113.98149 5029 ft 248 kts 241°
2026-05-07 10:04 22.03680 113.96516 4893 ft 251 kts 241°
2026-05-07 10:04 22.02925 113.94825 4625 ft 249 kts 256°
2026-05-07 10:04 22.02929 113.92972 4381 ft 250 kts 283°
2026-05-07 10:05 22.03619 113.91249 4159 ft 251 kts 297°
2026-05-07 10:05 22.04478 113.89602 3910 ft 251 kts 298°
2026-05-07 10:05 22.05335 113.87972 3679 ft 250 kts 298°
2026-05-07 10:05 22.06178 113.86362 3434 ft 248 kts 298°
2026-05-07 10:06 22.07030 113.84722 3177 ft 246 kts 298°
2026-05-07 10:06 22.07843 113.83150 3097 ft 239 kts 297°
2026-05-07 10:06 22.08653 113.81579 3049 ft 243 kts 297°
2026-05-07 10:06 22.09486 113.79958 3034 ft 249 kts 297°
2026-05-07 10:07 22.10334 113.78335 3022 ft 247 kts 302°
2026-05-07 10:07 22.11595 113.77081 2854 ft 249 kts 331°
2026-05-07 10:07 22.13153 113.76329 2638 ft 240 kts 335°
2026-05-07 10:07 22.14639 113.75604 2363 ft 229 kts 334°
2026-05-07 10:08 22.16050 113.74901 2091 ft 215 kts 335°
2026-05-07 10:08 22.17345 113.74259 2078 ft 202 kts 335°
2026-05-07 10:08 22.18654 113.73608 2076 ft 208 kts 336°
2026-05-07 10:08 22.20027 113.73324 1918 ft 200 kts 12°
2026-05-07 10:09 22.21283 113.73879 1841 ft 192 kts 30°
2026-05-07 10:09 22.22483 113.74564 1810 ft 195 kts 30°
2026-05-07 10:09 22.23666 113.75237 1809 ft 191 kts 30°
2026-05-07 10:09 22.24806 113.75951 1733 ft 191 kts 43°
2026-05-07 10:10 22.25485 113.77105 1714 ft 174 kts 73°
2026-05-07 10:10 22.25872 113.78321 1698 ft 168 kts 73°
2026-05-07 10:10 22.26268 113.79482 1691 ft 165 kts 72°
2026-05-07 10:10 22.26675 113.80656 1718 ft 168 kts 72°
2026-05-07 10:11 22.27064 113.81844 1576 ft 167 kts 74°
2026-05-07 10:11 22.27441 113.83017 1327 ft 163 kts 74°
2026-05-07 10:11 22.27815 113.84183 1113 ft 162 kts 75°
2026-05-07 10:11 22.28169 113.85284 905 ft 150 kts 73°
2026-05-07 10:12 22.28498 113.86313 646 ft 146 kts 73°
2026-05-07 10:12 22.28839 113.87359 562 ft 149 kts 71°
2026-05-07 10:12 22.29167 113.88376 431 ft 141 kts 71°
2026-05-07 10:12 22.29470 113.89336 238 ft 133 kts 73°
2026-05-07 10:13 22.29776 113.90261 51 ft 130 kts 73°
2026-05-07 10:13 22.30041 113.91099 43 ft 99 kts 70°
2026-05-07 10:13 22.30209 113.91618 42 ft 54 kts 71°
2026-05-07 10:13 22.30274 113.91822 42 ft 31 kts 71°
2026-05-07 10:14 22.30353 113.91979 41 ft 22 kts 53°
2026-05-07 10:14 22.30449 113.92078 42 ft 17 kts 38°
2026-05-07 10:14 22.30526 113.92047 42 ft 12 kts 275°
2026-05-07 10:14 22.30501 113.91952 42 ft 14 kts 251°
2026-05-07 10:15 22.30465 113.91840 42 ft 18 kts 250°
2026-05-07 10:15 22.30424 113.91714 42 ft 18 kts 251°
2026-05-07 10:15 22.30383 113.91584 42 ft 18 kts 251°
2026-05-07 10:15 22.30339 113.91449 42 ft 20 kts 250°
2026-05-07 10:16 22.30292 113.91305 42 ft 21 kts 251°
2026-05-07 10:16 22.30245 113.91159 42 ft 21 kts 251°
2026-05-07 10:16 22.30197 113.91015 42 ft 21 kts 250°
2026-05-07 10:16 22.30152 113.90869 42 ft 18 kts 251°
2026-05-07 10:17 22.30126 113.90770 42 ft 11 kts 280°
2026-05-07 10:17 22.30188 113.90716 42 ft 14 kts 339°
2026-05-07 10:17 22.30284 113.90680 42 ft 12 kts 341°
2026-05-07 10:17 22.30352 113.90633 42 ft 13 kts 294°
2026-05-07 10:18 22.30325 113.90506 42 ft 20 kts 251°
2026-05-07 10:18 22.30278 113.90359 42 ft 21 kts 251°
2026-05-07 10:18 22.30230 113.90212 42 ft 21 kts 251°
2026-05-07 10:18 22.30193 113.90096 42 ft 11 kts 251°
2026-05-07 10:19 22.30152 113.90066 42 ft 5 kts 178°
2026-05-07 10:19 22.30122 113.90073 42 ft 4 kts 162°
2026-05-07 10:19 22.30107 113.90079 42 ft 1 kts 160°
2026-05-07 10:19 22.30101 113.90081 42 ft 1 kts 160°
2026-05-07 10:20 22.30096 113.90083 42 ft 1 kts 160°